一网星座-0344星 (ONEWEB-0344 )

导读 | 星芒AI

ONEWEB-0344 是 OneWeb 卫星星座计划中的一颗低轨通信卫星,主要用于提供全球范围的宽带互联网服务。该卫星由阿丽亚娜集团制造,采用 OneWeb 标准卫星平台,具备高容量通信能力。它于2023年发射,部署在约1200公里高度的近极地轨道,与其他卫星共同构建星座网络,服务于偏远和地面网络覆盖不足的地区。该卫星支持高速数据传输,助力实现全球数字连接。

基本信息
目录编号:
49210
目录名称:
ONEWEB-0344
国际标识:
2021-083AA
轨道中心:
EARTH
卫星名称:
一网星座-0344星
卫星全名:
一网星座-0344星 (ONEWEB-0344 )
卫星状态:
在轨 (已飞行1507 天)
发射日期:
2021-09-14 UTC
国别 :
英国 (GB)
星等 :
--
轨道信息
数据来源 国际轨道数据
星历时间: 2025-10-30T05:52:04+0800
7小时前
查看轨道信息
半长轴: 7587.904km
偏心率: 0.0002086
轨道倾角: 87.902°
近地点辐角 89.055°
升交点赤经 6.036°
平近点角 271.082°
近地点: 1208.186km
远地点: 1211.352km
周期: 109.633分钟
每日圈数: 13.134696
详细信息
平衡模式:
三轴稳定
覆盖范围:
全球
运营商:
一网卫星公司
运营商所在国:
英国
制造商(研发单位):
一网卫星公司
制造商所在国:
英国
使用方式:
暂无
卫星简介
OneWeb卫星网络由648颗重约125公斤的微型卫星组成,运行在1200公里的轨道上。 每颗卫星都能够提供至少每秒8千兆位的吞吐量,以使用其高吞吐量的Ku频段有效载荷为家庭和移动平台提供互联网接入。该卫星仍在工作。
2D轨道图
3D轨道图
轨道高度分析图
轨道倾角分析图
轨道综合分析图
查看轨道综合分析图